Stanley, ND

11:28 AM CDT on August 20, 2017 (GMT -0500)
Stanley

Weather History for K08D - January, 2014

Change the Weather History Date:

Thursday, January 23, 2014

  Actual Average (KMIB) Record (KMIB)
Temperature  
Mean Temperature 6 °F -  
Max Temperature 28 °F 15 °F 42 °F (2006)
Min Temperature -16 °F 0 °F -20 °F (2003)
Degree Days  
Heating Degree Days 59    
Moisture  
Dew Point -1 °F    
Average Humidity 80    
Maximum Humidity 93    
Minimum Humidity 70    
Precipitation  
Precipitation 0.00 in - - ()
Sea Level Pressure  
Sea Level Pressure 30.28 in    
Wind  
Wind Speed 10 mph (WSW)    
Max Wind Speed 29 mph    
Max Gust Speed 37 mph    
Visibility 10 miles    
Events      
Averages and records for this station are not official NWS values.
T = Trace of Precipitation, MM = Missing Value Source: NWS Daily Summary

Daily Weather History Graph

Daily Weather History Graph

Search for Another Location

Airport or City:

Trip Planner

Search our weather history database for the weather conditions in past years. The results will help you decide how hot, cold, wet, or windy it might be!

Date:

Astronomy

Jan. 23, 2014 Rise Set
Actual Time 8:28 AM CST 5:34 PM CST
Civil Twilight 7:54 AM CST 6:09 PM CST
Nautical Twilight 7:16 AM CST 6:47 PM CST
Astronomical Twilight 6:39 AM CST 7:24 PM CST
Moon 12:43 AM CST (1/23) 11:28 AM CST (1/23)
Length of Visible Light 10h 15m
Length of Day
9h 06m
Waning Gibbous, 55% of the Moon is Illuminated
Jan 23
Waning Gibbous
Jan 23
Last Quarter
Jan 30
New
Feb 6
First Quarter
Feb 14
Full

Hourly Weather History & Observations

Time (CST) Temp. Windchill Dew Point Humidity Pressure Visibility Wind Dir Wind Speed Gust Speed Precip Events Conditions
12:15 AM -13.0 °F -25.1 °F -18.4 °F 77% 30.59 in 10.0 mi WNW 4.6 mph - N/A   Clear
12:35 AM -13.0 °F -25.1 °F -18.4 °F 77% 30.60 in 10.0 mi West 4.6 mph - N/A   Clear
12:55 AM -13.0 °F -22.7 °F -18.4 °F 77% 30.59 in 10.0 mi West 3.5 mph - N/A   Clear
1:15 AM -13.0 °F - -20.2 °F 70% 30.58 in 10.0 mi Calm Calm - N/A   Clear
1:35 AM -14.8 °F -27.2 °F -20.2 °F 77% 30.59 in 10.0 mi SW 4.6 mph - N/A   Clear
1:55 AM -16.6 °F -29.3 °F -22.0 °F 76% 30.59 in 10.0 mi WSW 4.6 mph - N/A   Clear
2:15 AM -16.6 °F -29.3 °F -22.0 °F 76% 30.59 in 10.0 mi West 4.6 mph - N/A   Clear
2:35 AM -14.8 °F -29.1 °F -20.2 °F 77% 30.58 in 10.0 mi WSW 5.8 mph - N/A   Clear
2:55 AM -16.6 °F -31.3 °F -20.2 °F 84% 30.58 in 10.0 mi West 5.8 mph - N/A   Clear
3:15 AM -14.8 °F -29.1 °F -20.2 °F 77% 30.58 in 10.0 mi WSW 5.8 mph - N/A   Clear
3:35 AM -14.8 °F -27.2 °F -20.2 °F 77% 30.57 in 10.0 mi WSW 4.6 mph - N/A   Clear
3:55 AM -13.0 °F -27.0 °F -18.4 °F 77% 30.56 in 10.0 mi WSW 5.8 mph - N/A   Clear
4:15 AM - - - N/A% 30.55 in 10.0 mi SSW 3.5 mph - N/A   Clear
4:35 AM -13.0 °F -28.6 °F -18.4 °F 77% 30.55 in 10.0 mi SW 6.9 mph - N/A   Clear
4:55 AM -13.0 °F -30.0 °F -18.4 °F 77% 30.54 in 10.0 mi SW 8.1 mph - N/A   Clear
5:15 AM -13.0 °F -28.6 °F -16.6 °F 84% 30.54 in 10.0 mi SW 6.9 mph - N/A   Clear
5:35 AM -11.2 °F -27.8 °F -16.6 °F 77% 30.54 in 10.0 mi WSW 8.1 mph - N/A   Clear
5:55 AM -11.2 °F -26.4 °F -16.6 °F 77% 30.53 in 10.0 mi SW 6.9 mph - N/A   Clear
6:15 AM -11.2 °F -20.6 °F -16.6 °F 77% 30.52 in 10.0 mi WSW 3.5 mph - N/A   Clear
6:35 AM -11.2 °F -23.0 °F -16.6 °F 77% 30.52 in 10.0 mi SSW 4.6 mph - N/A   Clear
6:55 AM -13.0 °F -27.0 °F -18.4 °F 77% 30.52 in 10.0 mi SW 5.8 mph - N/A   Clear
7:15 AM -13.0 °F -27.0 °F -18.4 °F 77% 30.50 in 10.0 mi SW 5.8 mph - N/A   Clear
7:35 AM -11.2 °F -24.8 °F -16.6 °F 77% 30.49 in 10.0 mi SSW 5.8 mph - N/A   Clear
7:55 AM -13.0 °F -28.6 °F -18.4 °F 77% 30.49 in 10.0 mi SW 6.9 mph - N/A   Clear
8:15 AM -11.2 °F -26.4 °F -16.6 °F 77% 30.47 in 10.0 mi SW 6.9 mph - N/A   Clear
8:35 AM -11.2 °F -30.1 °F -16.6 °F 77% 30.46 in 10.0 mi SSW 10.4 mph - N/A   Clear
8:55 AM -9.4 °F -27.9 °F -14.8 °F 77% 30.45 in 10.0 mi SSW 10.4 mph - N/A   Clear
9:15 AM -7.6 °F -25.7 °F -13.0 °F 77% 30.43 in 10.0 mi SW 10.4 mph - N/A   Clear
9:35 AM -4.0 °F -22.1 °F -11.2 °F 71% 30.42 in 10.0 mi SW 11.5 mph - N/A   Clear
9:55 AM -4.0 °F -23.0 °F -9.4 °F 78% 30.40 in 10.0 mi SW 12.7 mph - N/A   Clear
10:15 AM -2.2 °F -19.9 °F -7.6 °F 78% 30.39 in 10.0 mi SW 11.5 mph - N/A   Clear
10:35 AM -0.4 °F -19.2 °F -7.6 °F 72% 30.38 in 10.0 mi SW 13.8 mph - N/A   Clear
10:55 AM -0.4 °F -18.4 °F -4.0 °F 85% 30.37 in 10.0 mi SW 12.7 mph - N/A   Clear
11:15 AM 1.4 °F -18.2 °F -4.0 °F 78% 30.37 in 10.0 mi WSW 16.1 mph 20.7 mph N/A   Clear
11:35 AM 1.4 °F -18.8 °F -2.2 °F 85% 30.35 in 10.0 mi WSW 17.3 mph 21.9 mph N/A   Clear
11:55 AM 3.2 °F -16.5 °F -0.4 °F 85% 30.33 in 10.0 mi WSW 17.3 mph - N/A   Clear
12:15 PM 5.0 °F -16.2 °F -0.4 °F 78% 30.31 in 10.0 mi WSW 21.9 mph - N/A   Clear
12:35 PM 5.0 °F -16.2 °F -0.4 °F 78% 30.29 in 10.0 mi WSW 21.9 mph - N/A   Clear
12:55 PM 6.8 °F -13.8 °F 1.4 °F 79% 30.28 in 10.0 mi SW 21.9 mph - N/A   Clear
1:15 PM 6.8 °F -10.7 °F 1.4 °F 79% 30.26 in 10.0 mi SW 15.0 mph - N/A   Clear
1:35 PM 8.6 °F -9.5 °F 3.2 °F 79% 30.24 in 10.0 mi SW 17.3 mph 23.0 mph N/A   Clear
1:55 PM 8.6 °F -8.9 °F 5.0 °F 85% 30.22 in 10.0 mi SW 16.1 mph - N/A   Clear
2:15 PM 10.4 °F -7.2 °F 5.0 °F 79% 30.20 in 10.0 mi WSW 17.3 mph 23.0 mph N/A   Clear
2:35 PM 10.4 °F -9.1 °F 6.8 °F 85% 30.17 in 10.0 mi WSW 21.9 mph 27.6 mph N/A   Clear
2:55 PM 14.0 °F -3.4 °F 6.8 °F 73% 30.16 in 10.0 mi WSW 19.6 mph 24.2 mph N/A   Clear
3:15 PM 14.0 °F -3.4 °F 8.6 °F 79% 30.13 in 10.0 mi WSW 19.6 mph 26.5 mph N/A   Clear
3:35 PM 14.0 °F -2.5 °F 8.6 °F 79% 30.12 in 10.0 mi WSW 17.3 mph - N/A   Clear
3:55 PM 15.8 °F 1.4 °F 10.4 °F 79% 30.11 in 10.0 mi WSW 13.8 mph - N/A   Mostly Cloudy
4:15 PM 15.8 °F 0.9 °F 12.2 °F 86% 30.08 in 10.0 mi WSW 15.0 mph 19.6 mph N/A   Scattered Clouds
4:35 PM 17.6 °F 1.3 °F 14.0 °F 86% 30.05 in 10.0 mi WSW 19.6 mph 23.0 mph N/A   Partly Cloudy
4:55 PM 17.6 °F 2.2 °F 14.0 °F 86% 30.04 in 10.0 mi WSW 17.3 mph 25.3 mph N/A   Clear
5:15 PM 19.4 °F 4.1 °F 15.8 °F 86% 30.02 in 10.0 mi WSW 18.4 mph 24.2 mph N/A   Clear
5:35 PM 19.4 °F 2.8 °F 15.8 °F 86% 30.01 in 10.0 mi WSW 21.9 mph 31.1 mph N/A   Partly Cloudy
5:55 PM 21.2 °F 5.6 °F 17.6 °F 86% 30.00 in 10.0 mi WSW 20.7 mph - N/A   Scattered Clouds
6:15 PM 23.0 °F 7.2 °F 17.6 °F 80% 29.97 in 10.0 mi WSW 23.0 mph 27.6 mph N/A   Clear
6:35 PM 23.0 °F 6.9 °F 17.6 °F 80% 29.94 in 10.0 mi WSW 24.2 mph 29.9 mph N/A   Mostly Cloudy
6:55 PM 23.0 °F 6.6 °F 17.6 °F 80% 29.93 in 10.0 mi West 25.3 mph 36.8 mph N/A   Mostly Cloudy
7:15 PM 24.8 °F 8.1 °F 17.6 °F 74% 29.93 in 10.0 mi West 28.8 mph 35.7 mph N/A   Mostly Cloudy
7:35 PM 24.8 °F 9.3 °F 19.4 °F 80% 29.93 in 10.0 mi West 24.2 mph 31.1 mph N/A   Mostly Cloudy
7:55 PM 24.8 °F 9.3 °F 19.4 °F 80% 29.91 in 10.0 mi West 24.2 mph 29.9 mph N/A   Mostly Cloudy
8:55 PM 26.6 °F 11.1 °F 21.2 °F 80% 29.87 in 10.0 mi West 26.5 mph 32.2 mph N/A   Overcast
9:15 PM 26.6 °F 12.0 °F 21.2 °F 80% 29.86 in 10.0 mi West 23.0 mph 27.6 mph N/A   Overcast
10:15 PM 28.4 °F 15.4 °F 23.0 °F 80% 29.84 in 10.0 mi West 19.6 mph 27.6 mph N/A   Overcast
10:35 PM 28.4 °F 15.4 °F 24.8 °F 86% 29.83 in 10.0 mi West 19.6 mph 28.8 mph N/A   Overcast
10:55 PM 28.4 °F 14.7 °F 24.8 °F 86% 29.83 in 10.0 mi WNW 21.9 mph 33.4 mph N/A   Overcast
11:15 PM 28.4 °F 14.7 °F 24.8 °F 86% 29.83 in 10.0 mi WNW 21.9 mph 31.1 mph N/A   Overcast
11:35 PM 28.4 °F 14.1 °F 26.6 °F 93% 29.84 in 10.0 mi WNW 24.2 mph 31.1 mph N/A   Mostly Cloudy
11:55 PM 28.4 °F 14.4 °F 26.6 °F 93% 29.84 in 10.0 mi NW 23.0 mph 33.4 mph N/A   Scattered Clouds